User: anonymous   Login
Location: Lawrence Hall of Science
(37.8785°N, 122.2415°W)
Time: 10:29:50
(UTC-07:00)
Language:

NOSS 3-1 (C) - Orbit

View from above orbital plane
View from above orbital plane
View from above satellite
View from above satellite

Ground track
Ground track

The orbit data is extracted from the following two-line orbital elements,

1 26907U 01040C   15141.03456004 0.00000000  00000-0  00000-0 0    06
2 26907  63.4213 165.1030 0301000 358.0712   1.9288 13.41232025    02
Epoch (UTC): 21 May 2015 00:49:45
Eccentricity: 0.0301000
inclination: 63.4213°
perigee height: 879 km
apogee height: 1330 km
right ascension of ascending node: 165.1030°
argument of perigee: 358.0712°
revolutions per day: 13.41232025
mean anomaly at epoch: 1.9288°
orbit number at epoch: 0

The dashed part of the orbit path shows where the satellite is in the earth's shadow,  

DLR